Tracking 29892 objects as of 21-Nov-2024
HD Live streaming from Space Station
objects crossing your sky now

FENGYUN 1C DEB

Track FENGYUN 1C DEB now!
10-day predictions


NORAD ID: 29789
Int'l Code: 1999-025CF
Perigee: 846.3 km
Apogee: 1,292.3 km
Inclination: 99.5 °
Period: 106.5 minutes
Semi major axis: 7440 km
RCS: 0.0138 m2 (small)
Launch date: May 10, 1999
Source: People's Republic of China (PRC)
Launch site: Taiyaun Space Center, China (TSC)

Note: This is SATELLITE DEBRIS
Your satellite tracking list
Your tracking list is empty




NASA's NSSDC Master Catalog

Two Line Element Set (TLE):
1 29789U 99025CF  24325.82896601  .00002326  00000-0  26833-2 0  9993
2 29789  99.4586 159.2928 0299710 174.4833 307.1412 13.52741077877829
Source of the keplerian elements: AFSPC